SCP
0 0 0 0 0 0 0 0 0 0 0 0 0 0 0 0 0 0 0 0 0 0 0 0 0 0 0 0 0 0 0 0 0 0 0 0 0 0 0 0 0 0 0
0 0 0 0 0 0 0 0 0 0 0 0 0 0 0 0 0 0 0 0 0 0 0 0 0 0 0 0 0 0 0 0 0 0 0 0 0 0 0 0 0 0 0
0 0 0 0 0 0 0 0 0 0 0 0 0 0 0 0 0 0 0 0 0 0 0 0 0 0 0 0 0 0 0 0 0 0 0 0 0 0 0 0 0 0 0
0 0 0 0 0 0 0 0 0 0 0 0 0 0 0 0 0 0 0 0 0 0 0 0 0 0 0 0 0 0 0 0 0 0 0 0 0 0 0 0 0 0 0
0 0 0 0 0 0 0 0 0 0 0 0 0 0 0 0 0 0 0 0 0 0 0 0 0 0 0 0 0 0 0 0 0 0 0 0 0 0 0 0 0 0 0
0 0 0 0 0 0 0 0 0 0 0 0 0 0 0 0 0 0 0 0 0 0 0 0 0 0 0 0 0 0 0 0 0 0 0 0 0 0 0 0 0 0 0
0 0 0 0 0 0 0 0 0 0 0 0 0 0 0 0 0 0 0 0 0 0 0 0 0 0 0 0 0 0 0 0 0 0 0 0 0 0 0 0 0 0 0
0 0 0 0 0 0 0 0 0 0 0 0 0 0 0 0 0 0 0 0 0 0 0 0 0 0 0 0 0 0 0 0 0 0 0 0 0 0 0 0 0 0 0
0 0 0 0 0 0 0 0 0 0 0 0 0 0 0 0 0 0 0 0 0 0 0 0 0 0 0 0 0 0 0 0 0 0 0 0 0 0 0 0 0 0 0
0 0 0 0 0 0 0 0 0 0 0 0 0 0 0 0 0 0 0 0 0 0 0 0 0 0 0 0 0 0 0 0 0 0 0 0 0 0 0 0 0 0 0
0 0 0 0 0 0 0 0 0 0 0 0 0 0 0 0 0 0 0 0 0 0 0 0 0 0 0 0 0 0 0 0 0 0 0 0 0 0 0 0 0 0 0
0 0 0 0 0 0 0 0 0 0 0 0 0 0 0 0 0 0 0 0 0 0 0 0 0 0 0 0 0 0 0 0 0 0 0 0 0 0 0 0 0 0 0
0 0 0 0 0 0 0 0 0 0 0 0 0 0 0 0 0 0 0 0 0 0 0 0 0 0 0 0 0 0 0 0 0 0 0 0 0 0 0 0 0 0 0
0 0 0 0 0 0 0 0 0 0 0 0 0 0 0 0 0 0 0 0 0 0 0 0 0 0 0 0 0 0 0 0 0 0 0 0 0 0 0 0 0 0 0
0 0 0 0 0 0 0 0 0 0 0 0 0 0 0 0 0 0 0 0 0 0 0 0 0 0 0 0 0 0 0 0 0 0 0 0 0 0 0 0 0 0 0
0 0 0 0 0 0 0 0 0 0 0 0 0 0 0 0 0 0 0 0 0 0 0 0 0 0 0 0 0 0 0 0 0 0 0 0 0 0 0 0 0 0 0
0 0 0 0 0 0 0 0 0 0 0 0 0 0 0 0 0 0 0 0 0 0 0 0 0 0 0 0 0 0 0 0 0 0 0 0 0 0 0 0 0 0 0
0 0 0 0 0 0 0 0 0 0 0 0 0 0 0 0 0 0 0 0 0 0 0 0 0 0 0 0 0 0 0 0 0 0 0 0 0 0 0 0 0 0 0
-0 0 0 0 0 0 0 0 0 0 0 0 0 0 0 0 0 0 0 0 0 0 0 0 0 0 0 0 0 0 0 0 0 0 0 0 0 0 0 0 0 0 0
0 0 0 0 0 0 0 0 0 0 0 0 0 0 0 0 0 0 0 0 0 0 0 0 0 0 0 0 0 0 0 0 0 0 0 0 0 0 0 0 0 0 0
0 0 0 0 0 0 0 0 0 0 0 0 0 0 0 0 0 0 0 0 0 0 0 0 0 0 0 0 0 0 0 0 0 -0 0 0 0 0 0 -0 -0 0 0
0 0 0 0 0 0 0 0 0 0 0 0 0 0 0 0 0 0 0 0 0 0 0 0 0 0 0 0 0 0 0 0 -0 -0 0 -0 -0 -0 -0 -0 -0 -0 -0
0 0 0 0 0 0 0 0 0 0 0 0 0 0 0 0 0 0 0 0 0 0 0 0 0 0 0 0 0 0 0 0 0 0 -0 -0 -0 -0 -0 -0 -0 -0 -0
0 0 0 0 0 0 0 0 0 0 0 0 0 0 0 0 0 0 0 0 0 0 0 0 0 0 0 0 0 0 0 0 0 0 -0 -0 -0 -0 -0 -0 -0 -0 -0
0 0 0 0 0 0 0 0 0 0 0 0 0 0 0 0 0 0 0 0 0 0 0 0 0 0 0 0 0 0 0 0 0 -0 -0 -0 -0 -0 -0 -0 -0 -0 -0
-0 -0 0 0 0 0 0 0 0 -0 0 0 -0 0 0 0 0 0 0 0 0 0 0 0 0 0 0 0 0 0 0 0 0 -0 -0 -0 0 -0 -0 -0 0 0 0
Wind_Speed_500mb
67 62 57 56 58 56 53 46 41 36 35 35 38 40 40 37 34 31 28 24 24 28 30 31 32 32 31 32 24 20 21 21 21 21 23 25 25 27 28 28 27 27 27
68 64 59 58 60 56 53 46 40 35 33 34 37 40 40 39 37 35 35 32 29 30 33 36 40 39 37 42 35 26 26 29 29 28 28 29 30 31 32 32 32 32 32
69 62 62 60 60 57 52 48 43 38 35 35 37 40 41 40 40 40 40 40 38 36 37 40 43 46 44 44 47 38 35 32 33 38 37 35 35 37 37 38 38 38 38
70 60 60 59 58 56 54 50 45 42 39 37 36 38 41 43 44 45 47 46 45 44 42 43 47 48 48 50 57 52 43 43 41 42 47 44 41 41 42 42 43 43 44
69 66 66 61 58 56 56 53 49 45 43 41 35 37 42 46 47 50 51 51 51 51 49 47 51 54 57 59 62 54 44 48 49 50 48 48 46 44 45 47 48 49 49
64 60 65 61 59 58 57 55 52 48 45 39 37 41 44 44 47 51 52 53 56 56 54 53 55 58 61 66 68 61 54 47 51 57 53 47 48 47 47 48 49 50 49
55 59 62 63 63 62 59 57 54 53 51 47 44 49 46 47 51 56 56 58 59 59 58 59 60 61 63 70 69 72 70 63 57 56 57 55 53 52 51 51 51 51 52
55 58 63 65 64 63 60 59 60 59 58 57 57 53 48 53 63 61 57 54 53 56 57 58 61 63 66 69 72 72 73 71 70 59 58 60 60 57 56 55 56 57 57
55 56 61 63 61 62 62 57 61 65 64 60 66 58 25 37 42 41 34 36 44 46 48 50 52 57 63 68 71 73 73 73 73 71 69 64 60 60 61 63 64 64 65
60 57 57 58 61 62 62 59 59 65 67 71 71 74 74 74 59 55 55 44 45 50 50 48 51 53 56 61 67 70 71 71 70 70 70 69 68 67 64 63 66 70 70
64 61 61 58 56 64 64 62 71 72 72 77 81 78 82 82 80 81 62 59 58 50 42 43 56 56 58 56 55 59 64 67 69 68 68 68 68 68 69 70 68 71 73
66 68 61 59 57 59 62 62 67 71 75 74 79 92 89 63 63 68 78 79 72 70 56 50 51 50 47 50 55 55 62 65 67 68 67 66 68 69 70 74 72 71 74
68 63 59 60 59 62 67 68 70 72 79 71 82 84 82 73 68 65 45 43 45 53 47 43 48 54 51 52 51 59 49 46 56 66 73 76 73 87 80 83 75 74 76
57 56 55 54 54 56 49 44 41 44 47 47 53 54 51 49 48 43 38 39 37 35 39 31 30 35 41 47 55 59 56 57 62 69 78 95 103 82 79 77 73 73 76
23 20 22 16 16 18 14 13 17 15 17 16 16 15 16 16 15 15 13 15 15 11 21 20 28 35 40 46 52 61 67 76 80 81 81 80 82 90 97 102 105 110 102
33 12 8 4 12 13 7 8 10 15 10 16 16 14 16 17 16 15 19 17 19 18 16 26 40 48 50 52 54 58 60 62 62 63 66 69 73 77 81 83 86 88 89
42 33 38 36 39 37 37 33 34 31 27 26 24 24 25 26 25 23 24 24 24 25 27 37 40 41 46 52 53 55 57 60 63 61 64 68 71 74 77 79 82 83 83
57 57 54 56 56 57 53 50 46 41 39 36 33 27 29 24 20 20 21 22 24 26 31 40 44 45 48 52 59 61 65 66 69 69 70 71 73 75 78 76 73 74 77
70 67 67 67 63 60 54 51 45 42 42 40 37 34 35 32 32 34 35 36 37 38 40 45 52 54 56 61 66 67 71 74 74 77 78 80 77 77 75 81 92 92 92
72 68 68 67 65 59 54 49 45 45 45 46 46 46 45 45 45 45 45 46 48 50 51 52 56 59 62 63 70 77 85 85 92 91 90 80 81 84 98 94 95 96 94
70 66 65 66 65 65 61 54 51 51 49 48 47 47 46 44 44 46 49 51 52 52 54 56 56 62 64 73 76 78 88 95 97 93 83 76 107 106 105 103 98 90 86
69 65 64 64 67 68 58 54 50 49 47 47 47 46 44 45 46 48 48 49 51 47 48 51 54 60 64 73 76 78 82 90 90 62 94 118 107 112 106 92 82 79 78
65 66 67 62 65 61 53 51 48 46 47 50 52 54 54 54 54 56 56 51 52 49 49 49 58 61 68 66 67 78 77 76 84 104 101 121 109 103 84 89 90 88 98
65 63 61 59 56 54 49 47 45 48 51 53 56 60 62 61 59 61 66 65 64 60 55 60 64 66 65 63 62 66 72 88 96 98 81 97 92 94 96 110 110 88 72
61 59 57 55 52 52 48 46 48 52 58 61 61 63 66 66 60 56 63 68 68 63 67 67 63 62 64 65 62 67 75 81 98 104 82 37 72 105 109 112 90 76 77
61 59 60 58 54 53 52 55 58 63 67 72 69 69 68 64 63 59 60 66 66 61 72 72 67 64 64 66 64 62 67 74 81 74 48 58 93 82 65 91 106 117 112
Wind_Direction_500mb
201 201 197 195 189 193 199 205 211 219 220 218 215 216 218 221 224 231 235 238 235 231 240 249 265 272 283 286 289 295 304 307 307 304 301 296 290 285 284 284 283 281 279
205 205 200 195 196 199 203 209 216 224 228 225 223 221 223 227 232 239 241 244 247 247 239 237 250 258 267 277 278 270 278 294 302 298 297 294 289 284 284 284 282 280 278
206 206 203 199 200 205 208 210 215 220 224 225 225 227 229 232 240 244 246 248 251 253 249 239 238 245 253 260 272 275 263 259 271 295 296 291 287 283 282 281 280 278 276
210 208 207 205 204 209 213 214 219 222 224 229 232 233 237 242 247 249 250 251 255 257 254 249 240 241 246 241 260 271 276 277 269 264 290 290 286 282 281 279 277 277 276
211 215 209 207 208 212 215 219 223 226 229 233 233 243 249 250 252 253 254 256 258 259 258 255 249 245 244 245 254 261 266 273 277 274 268 279 280 277 275 274 274 273 272
216 221 210 207 210 214 217 222 226 230 234 234 238 252 259 261 263 263 263 263 263 264 264 262 259 256 253 248 255 256 263 263 273 277 268 265 267 272 272 270 269 269 269
214 212 211 210 212 217 220 224 230 233 236 236 240 251 258 266 267 268 271 273 272 272 271 268 266 264 262 260 257 259 262 265 268 266 269 267 266 268 269 268 268 268 267
216 215 216 215 216 219 221 226 228 236 239 238 240 246 257 266 267 273 273 278 276 274 274 274 272 270 269 268 267 265 267 270 269 268 265 266 268 267 267 268 270 268 266
218 219 222 221 220 224 227 232 234 234 240 246 247 241 252 254 272 274 271 278 281 282 280 274 270 272 271 270 269 269 270 271 273 273 269 264 262 263 266 269 270 269 269
220 221 225 227 226 228 234 239 241 242 244 248 248 252 254 260 265 276 274 270 277 276 276 274 277 279 277 277 275 273 272 272 272 272 268 267 267 267 266 265 265 267 267
224 226 228 229 231 230 236 241 253 242 246 254 250 255 255 258 257 259 265 267 271 270 267 269 280 276 274 273 275 272 267 267 267 268 269 269 269 270 270 269 268 266 265
225 228 231 234 238 242 242 249 251 256 256 257 262 258 254 253 259 262 263 261 268 273 276 282 282 274 277 271 267 269 267 269 268 267 265 266 269 271 273 274 272 271 269
228 228 230 234 239 243 244 251 256 258 256 251 256 259 258 260 263 261 266 268 273 282 286 285 283 284 279 276 277 275 276 271 274 278 276 270 270 276 276 274 273 273 271
220 220 223 230 235 237 242 253 268 273 278 275 271 271 271 276 279 280 280 281 287 287 287 286 283 281 281 278 280 279 275 273 272 276 279 281 280 270 268 270 275 276 274
173 173 193 226 240 234 237 276 263 268 267 260 249 255 266 276 295 323 316 328 315 316 310 279 278 284 281 281 280 280 281 284 284 283 282 282 280 275 272 273 273 272 273
108 119 95 110 120 102 72 104 102 82 83 85 76 67 62 52 28 1 352 345 336 325 308 297 294 298 298 299 300 300 298 296 294 291 289 287 286 285 284 284 284 282 281
81 89 86 87 77 72 68 64 66 68 68 68 61 49 46 35 25 16 6 356 348 339 325 313 315 315 312 309 306 305 305 304 302 299 297 295 293 292 292 290 288 287 285
85 83 85 82 80 79 77 75 75 76 75 72 68 61 56 46 32 22 10 358 347 336 325 320 321 320 321 317 317 314 311 309 308 307 305 303 301 300 297 295 295 294 292
89 89 87 85 82 79 78 77 77 76 73 68 60 52 48 40 33 27 19 10 2 353 345 336 330 327 324 320 317 312 310 309 307 306 306 305 305 302 300 299 300 297 292
91 88 87 87 84 81 77 75 71 67 63 59 54 49 43 36 28 20 11 3 354 346 339 333 328 324 323 321 320 320 316 316 315 313 314 308 310 305 305 304 302 301 295
88 88 89 87 84 78 71 66 63 60 58 55 50 43 36 26 18 9 359 352 345 339 334 330 327 325 325 323 324 320 315 314 313 316 311 309 308 307 308 308 304 300 299
87 84 79 77 75 71 66 63 59 56 50 45 39 31 21 11 2 356 352 347 341 340 334 330 328 324 320 321 319 317 315 317 317 314 309 312 314 313 315 309 305 300 296
78 79 80 78 75 71 63 56 50 45 38 31 25 17 9 3 354 351 348 343 336 332 325 324 323 322 318 321 316 315 314 310 306 311 313 310 314 313 312 305 305 300 300
76 75 74 73 72 68 58 50 43 37 30 23 16 10 3 358 355 352 343 341 337 333 328 326 324 321 318 315 312 309 307 306 305 309 313 304 317 314 313 308 311 308 300
72 68 66 65 63 61 51 41 31 26 20 15 8 4 0 356 353 350 338 338 334 332 325 326 322 318 314 312 312 309 311 311 311 314 323 291 309 312 317 317 317 306 302
72 68 63 58 51 45 36 26 19 14 10 6 4 358 355 351 347 344 339 336 330 329 324 322 321 318 315 315 317 318 317 313 313 315 308 314 316 316 313 310 312 313 314
Wind_Speed_850mb
67 62 57 56 58 56 53 46 41 36 35 35 38 40 40 37 34 31 28 24 24 28 30 31 32 32 31 32 24 20 21 21 21 21 23 25 25 27 28 28 27 27 27
68 64 59 58 60 56 53 46 40 35 33 34 37 40 40 39 37 35 35 32 29 30 33 36 40 39 37 42 35 26 26 29 29 28 28 29 30 31 32 32 32 32 32
69 62 62 60 60 57 52 48 43 38 35 35 37 40 41 40 40 40 40 40 38 36 37 40 43 46 44 44 47 38 35 32 33 38 37 35 35 37 37 38 38 38 38
70 60 60 59 58 56 54 50 45 42 39 37 36 38 41 43 44 45 47 46 45 44 42 43 47 48 48 50 57 52 43 43 41 42 47 44 41 41 42 42 43 43 44
69 66 66 61 58 56 56 53 49 45 43 41 35 37 42 46 47 50 51 51 51 51 49 47 51 54 57 59 62 54 44 48 49 50 48 48 46 44 45 47 48 49 49
64 60 65 61 59 58 57 55 52 48 45 39 37 41 44 44 47 51 52 53 56 56 54 53 55 58 61 66 68 61 54 47 51 57 53 47 48 47 47 48 49 50 49
55 59 62 63 63 62 59 57 54 53 51 47 44 49 46 47 51 56 56 58 59 59 58 59 60 61 63 70 69 72 70 63 57 56 57 55 53 52 51 51 51 51 52
55 58 63 65 64 63 60 59 60 59 58 57 57 53 48 53 63 61 57 54 53 56 57 58 61 63 66 69 72 72 73 71 70 59 58 60 60 57 56 55 56 57 57
55 56 61 63 61 62 62 57 61 65 64 60 66 58 25 37 42 41 34 36 44 46 48 50 52 57 63 68 71 73 73 73 73 71 69 64 60 60 61 63 64 64 65
60 57 57 58 61 62 62 59 59 65 67 71 71 74 74 74 59 55 55 44 45 50 50 48 51 53 56 61 67 70 71 71 70 70 70 69 68 67 64 63 66 70 70
64 61 61 58 56 64 64 62 71 72 72 77 81 78 82 82 80 81 62 59 58 50 42 43 56 56 58 56 55 59 64 67 69 68 68 68 68 68 69 70 68 71 73
66 68 61 59 57 59 62 62 67 71 75 74 79 92 89 63 63 68 78 79 72 70 56 50 51 50 47 50 55 55 62 65 67 68 67 66 68 69 70 74 72 71 74
68 63 59 60 59 62 67 68 70 72 79 71 82 84 82 73 68 65 45 43 45 53 47 43 48 54 51 52 51 59 49 46 56 66 73 76 73 87 80 83 75 74 76
57 56 55 54 54 56 49 44 41 44 47 47 53 54 51 49 48 43 38 39 37 35 39 31 30 35 41 47 55 59 56 57 62 69 78 95 103 82 79 77 73 73 76
23 20 22 16 16 18 14 13 17 15 17 16 16 15 16 16 15 15 13 15 15 11 21 20 28 35 40 46 52 61 67 76 80 81 81 80 82 90 97 102 105 110 102
33 12 8 4 12 13 7 8 10 15 10 16 16 14 16 17 16 15 19 17 19 18 16 26 40 48 50 52 54 58 60 62 62 63 66 69 73 77 81 83 86 88 89
42 33 38 36 39 37 37 33 34 31 27 26 24 24 25 26 25 23 24 24 24 25 27 37 40 41 46 52 53 55 57 60 63 61 64 68 71 74 77 79 82 83 83
57 57 54 56 56 57 53 50 46 41 39 36 33 27 29 24 20 20 21 22 24 26 31 40 44 45 48 52 59 61 65 66 69 69 70 71 73 75 78 76 73 74 77
70 67 67 67 63 60 54 51 45 42 42 40 37 34 35 32 32 34 35 36 37 38 40 45 52 54 56 61 66 67 71 74 74 77 78 80 77 77 75 81 92 92 92
72 68 68 67 65 59 54 49 45 45 45 46 46 46 45 45 45 45 45 46 48 50 51 52 56 59 62 63 70 77 85 85 92 91 90 80 81 84 98 94 95 96 94
70 66 65 66 65 65 61 54 51 51 49 48 47 47 46 44 44 46 49 51 52 52 54 56 56 62 64 73 76 78 88 95 97 93 83 76 107 106 105 103 98 90 86
69 65 64 64 67 68 58 54 50 49 47 47 47 46 44 45 46 48 48 49 51 47 48 51 54 60 64 73 76 78 82 90 90 62 94 118 107 112 106 92 82 79 78
65 66 67 62 65 61 53 51 48 46 47 50 52 54 54 54 54 56 56 51 52 49 49 49 58 61 68 66 67 78 77 76 84 104 101 121 109 103 84 89 90 88 98
65 63 61 59 56 54 49 47 45 48 51 53 56 60 62 61 59 61 66 65 64 60 55 60 64 66 65 63 62 66 72 88 96 98 81 97 92 94 96 110 110 88 72
61 59 57 55 52 52 48 46 48 52 58 61 61 63 66 66 60 56 63 68 68 63 67 67 63 62 64 65 62 67 75 81 98 104 82 37 72 105 109 112 90 76 77
61 59 60 58 54 53 52 55 58 63 67 72 69 69 68 64 63 59 60 66 66 61 72 72 67 64 64 66 64 62 67 74 81 74 48 58 93 82 65 91 106 117 112
Wind_Direction_850mb
201 201 197 195 189 193 199 205 211 219 220 218 215 216 218 221 224 231 235 238 235 231 240 249 265 272 283 286 289 295 304 307 307 304 301 296 290 285 284 284 283 281 279
205 205 200 195 196 199 203 209 216 224 228 225 223 221 223 227 232 239 241 244 247 247 239 237 250 258 267 277 278 270 278 294 302 298 297 294 289 284 284 284 282 280 278
206 206 203 199 200 205 208 210 215 220 224 225 225 227 229 232 240 244 246 248 251 253 249 239 238 245 253 260 272 275 263 259 271 295 296 291 287 283 282 281 280 278 276
210 208 207 205 204 209 213 214 219 222 224 229 232 233 237 242 247 249 250 251 255 257 254 249 240 241 246 241 260 271 276 277 269 264 290 290 286 282 281 279 277 277 276
211 215 209 207 208 212 215 219 223 226 229 233 233 243 249 250 252 253 254 256 258 259 258 255 249 245 244 245 254 261 266 273 277 274 268 279 280 277 275 274 274 273 272
216 221 210 207 210 214 217 222 226 230 234 234 238 252 259 261 263 263 263 263 263 264 264 262 259 256 253 248 255 256 263 263 273 277 268 265 267 272 272 270 269 269 269
214 212 211 210 212 217 220 224 230 233 236 236 240 251 258 266 267 268 271 273 272 272 271 268 266 264 262 260 257 259 262 265 268 266 269 267 266 268 269 268 268 268 267
216 215 216 215 216 219 221 226 228 236 239 238 240 246 257 266 267 273 273 278 276 274 274 274 272 270 269 268 267 265 267 270 269 268 265 266 268 267 267 268 270 268 266
218 219 222 221 220 224 227 232 234 234 240 246 247 241 252 254 272 274 271 278 281 282 280 274 270 272 271 270 269 269 270 271 273 273 269 264 262 263 266 269 270 269 269
220 221 225 227 226 228 234 239 241 242 244 248 248 252 254 260 265 276 274 270 277 276 276 274 277 279 277 277 275 273 272 272 272 272 268 267 267 267 266 265 265 267 267
224 226 228 229 231 230 236 241 253 242 246 254 250 255 255 258 257 259 265 267 271 270 267 269 280 276 274 273 275 272 267 267 267 268 269 269 269 270 270 269 268 266 265
225 228 231 234 238 242 242 249 251 256 256 257 262 258 254 253 259 262 263 261 268 273 276 282 282 274 277 271 267 269 267 269 268 267 265 266 269 271 273 274 272 271 269
228 228 230 234 239 243 244 251 256 258 256 251 256 259 258 260 263 261 266 268 273 282 286 285 283 284 279 276 277 275 276 271 274 278 276 270 270 276 276 274 273 273 271
220 220 223 230 235 237 242 253 268 273 278 275 271 271 271 276 279 280 280 281 287 287 287 286 283 281 281 278 280 279 275 273 272 276 279 281 280 270 268 270 275 276 274
173 173 193 226 240 234 237 276 263 268 267 260 249 255 266 276 295 323 316 328 315 316 310 279 278 284 281 281 280 280 281 284 284 283 282 282 280 275 272 273 273 272 273
108 119 95 110 120 102 72 104 102 82 83 85 76 67 62 52 28 1 352 345 336 325 308 297 294 298 298 299 300 300 298 296 294 291 289 287 286 285 284 284 284 282 281
81 89 86 87 77 72 68 64 66 68 68 68 61 49 46 35 25 16 6 356 348 339 325 313 315 315 312 309 306 305 305 304 302 299 297 295 293 292 292 290 288 287 285
85 83 85 82 80 79 77 75 75 76 75 72 68 61 56 46 32 22 10 358 347 336 325 320 321 320 321 317 317 314 311 309 308 307 305 303 301 300 297 295 295 294 292
89 89 87 85 82 79 78 77 77 76 73 68 60 52 48 40 33 27 19 10 2 353 345 336 330 327 324 320 317 312 310 309 307 306 306 305 305 302 300 299 300 297 292
91 88 87 87 84 81 77 75 71 67 63 59 54 49 43 36 28 20 11 3 354 346 339 333 328 324 323 321 320 320 316 316 315 313 314 308 310 305 305 304 302 301 295
88 88 89 87 84 78 71 66 63 60 58 55 50 43 36 26 18 9 359 352 345 339 334 330 327 325 325 323 324 320 315 314 313 316 311 309 308 307 308 308 304 300 299
87 84 79 77 75 71 66 63 59 56 50 45 39 31 21 11 2 356 352 347 341 340 334 330 328 324 320 321 319 317 315 317 317 314 309 312 314 313 315 309 305 300 296
78 79 80 78 75 71 63 56 50 45 38 31 25 17 9 3 354 351 348 343 336 332 325 324 323 322 318 321 316 315 314 310 306 311 313 310 314 313 312 305 305 300 300
76 75 74 73 72 68 58 50 43 37 30 23 16 10 3 358 355 352 343 341 337 333 328 326 324 321 318 315 312 309 307 306 305 309 313 304 317 314 313 308 311 308 300
72 68 66 65 63 61 51 41 31 26 20 15 8 4 0 356 353 350 338 338 334 332 325 326 322 318 314 312 312 309 311 311 311 314 323 291 309 312 317 317 317 306 302
72 68 63 58 51 45 36 26 19 14 10 6 4 358 355 351 347 344 339 336 330 329 324 322 321 318 315 315 317 318 317 313 313 315 308 314 316 316 313 310 312 313 314